Newark, NJ

8:59 PM EST on November 21, 2019 (GMT -0500)
Newark International

Weather History for KEWR - October, 2019

Change the Weather History Date:

Friday, October 18, 2019

  Actual Average Record
Temperature  
Mean Temperature 54 °F 56 °F  
Max Temperature 61 °F 65 °F 85 °F (2016)
Min Temperature 47 °F 47 °F 32 °F (1982)
Degree Days  
Heating Degree Days 11 9  
Month to date heating degree days 82 126  
Since 1 July heating degree days 89 171  
Cooling Degree Days 0 0  
Month to date cooling degree days 33 14  
Year to date cooling degree days 1397 1188  
Growing Degree Days 4 (Base 50)    
Moisture  
Dew Point 37 °F    
Average Humidity 55    
Maximum Humidity 63    
Minimum Humidity 42    
Precipitation  
Precipitation 0.00 in 0.11 in 1.29 in (1932)
Month to date precipitation 3.78 2.11  
Year to date precipitation 47.10 37.30  
Snow  
Snow 0.00 in 0.00 in T in (1972)
Month to date snowfall 0.0 0.0  
Since 1 July snowfall 0.0 0.0  
Snow Depth 0.00 in    
Sea Level Pressure  
Sea Level Pressure 29.85 in    
Wind  
Wind Speed 14 mph ()    
Max Wind Speed 25 mph    
Max Gust Speed 33 mph    
Visibility 10.0 miles    
Events      
T = Trace of Precipitation, MM = Missing Value Source: Averaged Metar Reports

Daily Weather History Graph

Daily Weather History Graph

Search for Another Location

Airport or City:

Astronomy

Oct. 18, 2019 Rise Set
Actual Time 7:10 AM EDT 6:12 PM EDT
Civil Twilight 6:43 AM EDT 6:39 PM EDT
Nautical Twilight 6:11 AM EDT 7:11 PM EDT
Astronomical Twilight 5:39 AM EDT 7:43 PM EDT
Moon 9:25 PM EDT (10/18) 11:42 AM EDT (10/18)
Length of Visible Light 11h 56m
Length of Day
11h 01m
Waning Gibbous, 79% of the Moon is Illuminated
Oct 18
Waning Gibbous
Oct 21
Last Quarter
Oct 27
New
Nov 4
First Quarter
Nov 12
Full

Hourly Weather History & Observations

Time (EDT) Temp. Dew Point Humidity Pressure Visibility Wind Dir Wind Speed Gust Speed Precip Events Conditions
12:51 AM 54.0 °F 39.0 °F 57% 29.67 in 10.0 mi WNW 15.0 mph 25.3 mph N/A   Mostly Cloudy
1:51 AM 53.1 °F 39.0 °F 59% 29.69 in 10.0 mi WNW 17.3 mph 23.0 mph N/A   Mostly Cloudy
2:51 AM 52.0 °F 39.9 °F 63% 29.68 in 10.0 mi WNW 19.6 mph 26.5 mph N/A   Mostly Cloudy
3:51 AM 52.0 °F 39.0 °F 61% 29.69 in 10.0 mi NW 16.1 mph 27.6 mph N/A   Mostly Cloudy
4:51 AM 52.0 °F 39.0 °F 61% 29.71 in 10.0 mi NW 17.3 mph 23.0 mph N/A   Mostly Cloudy
5:51 AM 52.0 °F 39.0 °F 61% 29.75 in 10.0 mi NW 16.1 mph 24.2 mph N/A   Mostly Cloudy
6:51 AM 51.1 °F 39.0 °F 63% 29.77 in 10.0 mi WNW 13.8 mph 19.6 mph N/A   Mostly Cloudy
7:51 AM 51.1 °F 39.0 °F 63% 29.79 in 10.0 mi NW 11.5 mph - N/A   Mostly Cloudy
8:51 AM 52.0 °F 37.9 °F 59% 29.82 in 10.0 mi NW 18.4 mph 31.1 mph N/A   Mostly Cloudy
9:51 AM 55.0 °F 37.9 °F 53% 29.83 in 10.0 mi NNW 13.8 mph 27.6 mph N/A   Scattered Clouds
10:51 AM 57.0 °F 37.9 °F 49% 29.84 in 10.0 mi NW 17.3 mph 25.3 mph N/A   Mostly Cloudy
11:51 AM 57.9 °F 37.9 °F 47% 29.83 in 10.0 mi NW 19.6 mph 28.8 mph N/A   Scattered Clouds
12:51 PM 59.0 °F 39.0 °F 48% 29.84 in 10.0 mi NW 13.8 mph 26.5 mph N/A   Scattered Clouds
1:51 PM 60.1 °F 37.9 °F 44% 29.85 in 10.0 mi NNW 19.6 mph - N/A   Scattered Clouds
2:51 PM 57.0 °F 37.9 °F 49% 29.87 in 10.0 mi NW 18.4 mph 33.4 mph N/A   Mostly Cloudy
3:51 PM 57.0 °F 37.0 °F 47% 29.89 in 10.0 mi NW 17.3 mph 28.8 mph N/A   Scattered Clouds
4:51 PM 55.0 °F 37.0 °F 51% 29.91 in 10.0 mi NW 18.4 mph - N/A   Partly Cloudy
5:51 PM 54.0 °F 36.0 °F 51% 29.92 in 10.0 mi NNW 13.8 mph 23.0 mph N/A   Partly Cloudy
6:51 PM 52.0 °F 35.1 °F 53% 29.95 in 10.0 mi NNW 17.3 mph 31.1 mph N/A   Partly Cloudy
7:51 PM 51.1 °F 36.0 °F 56% 29.98 in 10.0 mi North 10.4 mph - N/A   Partly Cloudy
8:51 PM 51.1 °F 36.0 °F 56% 29.99 in 10.0 mi NNW 5.8 mph - N/A   Partly Cloudy
9:51 PM 50.0 °F 35.1 °F 57% 30.01 in 10.0 mi NNW 4.6 mph - N/A   Partly Cloudy
9:57 PM 50.0 °F 35.1 °F 57% 30.02 in 10.0 mi NW 12.7 mph - N/A   Partly Cloudy
10:51 PM 48.9 °F 35.1 °F 59% 30.03 in 10.0 mi WNW 6.9 mph - N/A   Partly Cloudy
11:51 PM 48.0 °F 35.1 °F 61% 30.03 in 10.0 mi NW 6.9 mph - N/A   Clear